Погода в Калгалакше

Россия / Республика Карелия     65°45′49″N   34°40′11″E
темп.,
°C
ветер,
м/с
пор.,
м/с
влажн.,
%
обл.,
%
осадки,
мм/ч
давл.,
гПа
погр.,
м
9 марта, вт
вт900:00−24ссв229851 0.0 102120
03:00−25ссз339733 0.0 102320
06:00−26сз33965 0.0 102320
09:00−25зсз23955 0.0 102424
12:00−19з368730 0.0 1025217
15:00−15з598547 0.0 1025251
18:00−16зсз57860 0.0 102599
21:00−16зсз57810 0.0 102593
10 марта, ср
ср1000:00−16сз567955 0.0 102585
03:00−16зсз467569 0.0 102683
06:00−17зсз467590 0.0 102672
09:00−17зсз467682 0.0 102788
12:00−13з478322 0.0 1027184
15:00−11з478411 0.0 1026165
18:00−14зюз46870 0.0 102694
21:00−15зюз59830 0.0 1025141
11 марта, чт
чт1100:00−16зюз610790 0.0 1023166
03:00−17зюз611790 0.0 1022201
06:00−17зюз7137732 0.0 1021250
09:00−16зюз7147741 0.0 1019310
12:00−12зюз7147290 0.0 1016505
15:00−10зюз7137391 0.0 1014477
18:00−10юз6128251 0.0 1011255
21:00−10юз6128945 0.0 1010245
12 марта, пт
пт1200:00−12зюз6128938 0.0 1009264
03:00−12юз5109057 0.0 1008207
06:00−11юз51092100 0.0 1007194
09:00−9ююз51192100 0.0 1005282
12:00−5ююз6128495 0.0 1004420
15:00−5ююз7128170 0.0 1003395
18:00−6ююз713850 0.0 1001286
21:00−7ююз7148816 0.0 1001356
13 марта, сб
сб1300:00−7ююз61289100 0.0 1001330
03:00−7ююз61290100 0.0 1000299
06:00−6ююз6129299 0.0 999295
09:00−5ююз71391100 0.1 999575
12:00−4ююз81187100 0.1 999671
15:00−4ююз81188100 0.1 998647
18:00−4ююз71189100 0.1 997554
21:00−3ю61192100 0.1 996379